Location: USNO
(38.9242°N, 77.0663°W)
Time: 15:12:07
(UTC-05:00)

Vanguard 3 - All Passes

Search period start: 21 January 2018 00:00
Search period end: 31 January 2018 00:00
Orbit: 508 x 3264 km, 33.4° (Epoch: 20 January)

Date Brightness Start Highest point End Pass type
(mag) Time Alt. Az. Time Alt. Az. Time Alt. Az.
21 Jan - 00:37:28 10° WSW 00:50:54 63° SSE 01:10:17 10° E visible
21 Jan - 02:50:12 10° W 03:07:12 74° S 03:26:56 10° ESE visible
21 Jan - 05:05:07 10° W 05:23:55 58° SSW 05:40:58 10° SE visible
21 Jan - 07:22:59 10° W 07:38:15 30° SW 07:50:39 10° S daylight
21 Jan - 21:17:23 10° SSE 21:23:46 18° SE 21:32:10 10° E night (unlit)
21 Jan - 23:24:13 10° SW 23:35:24 50° SSE 23:52:46 10° E visible
22 Jan - 01:35:33 10° WSW 01:50:24 72° S 02:10:26 10° E visible
22 Jan - 03:49:16 10° W 04:07:12 68° SSW 04:26:06 10° ESE visible
22 Jan - 06:05:12 10° W 06:22:55 43° SW 06:38:12 10° SSE visible
22 Jan - 08:27:28 10° W 08:35:49 15° SW 08:43:12 10° SSW daylight
22 Jan - 22:11:55 10° SSW 22:20:54 34° SE 22:34:43 10° E night (unlit)
23 Jan - 00:21:38 10° WSW 00:34:11 65° SSE 00:53:16 10° E visible
23 Jan - 02:34:09 10° W 02:50:18 73° S 03:10:15 10° ESE visible
23 Jan - 04:48:41 10° W 05:06:49 55° SSW 05:24:23 10° SE visible
23 Jan - 07:06:36 10° W 07:21:11 27° SW 07:33:45 10° S daylight
23 Jan - 21:01:05 10° S 21:07:17 19° SE 21:15:44 10° E night (unlit)
23 Jan - 23:08:26 10° SW 23:18:49 53° SSE 23:35:41 10° E visible
24 Jan - 01:19:42 10° WSW 01:33:38 73° S 01:53:32 10° E visible
24 Jan - 03:33:05 10° W 03:50:11 65° SSW 04:09:25 10° ESE visible
24 Jan - 05:48:46 10° W 06:05:47 39° SW 06:21:27 10° SSE visible
24 Jan - 08:12:37 10° WSW 08:18:52 12° SW 08:24:41 10° SSW daylight
24 Jan - 21:56:05 10° SSW 22:04:26 36° SE 22:17:46 10° E night (unlit)
25 Jan - 00:05:54 10° WSW 00:17:36 67° SSE 00:36:13 10° E visible
25 Jan - 02:18:12 10° W 02:33:25 71° S 02:53:24 10° ESE visible
25 Jan - 04:32:25 10° W 04:49:42 51° SSW 05:07:38 10° SE visible
25 Jan - 06:50:27 10° W 07:04:06 24° SW 07:16:30 10° S visible
25 Jan - 20:45:01 10° S 20:50:54 21° SE 20:59:14 10° E visible
25 Jan - 22:52:47 10° SW 23:02:23 55° SSE 23:18:35 10° E night (unlit)
26 Jan - 01:03:58 10° W 01:16:58 72° S 01:36:32 10° E visible
26 Jan - 03:17:01 10° W 03:33:11 62° SSW 03:52:34 10° SE visible
26 Jan - 05:32:31 10° W 05:48:39 36° SW 06:04:26 10° SSE visible
26 Jan - 08:01:03 10° SW 08:01:56 10° SW 08:02:47 10° SW daylight
26 Jan - 21:40:23 10° SSW 21:48:06 38° SE 22:00:49 10° E night (unlit)
26 Jan - 23:50:18 10° WSW 00:01:07 68° SSE 00:19:07 10° E visible
27 Jan - 02:02:22 10° W 02:16:38 69° S 02:36:26 10° ESE visible
27 Jan - 04:16:16 10° W 04:32:37 47° SSW 04:50:38 10° SE visible
27 Jan - 06:34:39 10° W 06:47:02 21° SW 06:58:51 10° S visible
27 Jan - 20:29:05 10° S 20:34:39 22° SE 20:42:42 10° E visible
27 Jan - 22:37:13 10° SW 22:46:04 57° SSE 23:01:29 10° E night (unlit)
28 Jan - 00:48:18 10° W 01:00:24 71° S 01:19:27 10° ESE visible
28 Jan - 03:01:04 10° W 03:16:14 58° SSW 03:35:32 10° SE visible
28 Jan - 05:16:29 10° W 05:31:33 32° SW 05:47:08 10° SSE visible
28 Jan - 21:24:47 10° SW 21:31:54 40° SSE 21:43:53 10° E visible
28 Jan - 23:34:46 10° WSW 23:44:46 68° S 00:01:59 10° E visible
29 Jan - 01:46:37 10° W 01:59:54 66° SSW 02:19:21 10° ESE visible
29 Jan - 04:00:18 10° W 04:15:35 43° SSW 04:33:25 10° SSE visible
29 Jan - 06:19:18 10° W 06:30:01 18° SW 06:40:40 10° SSW visible
29 Jan - 20:13:18 10° S 20:18:30 23° SE 20:26:11 10° E visible
29 Jan - 22:21:44 10° WSW 22:29:54 58° SSE 22:44:24 10° E night (unlit)
30 Jan - 00:32:44 10° W 00:43:56 69° S 01:02:18 10° ESE visible
30 Jan - 02:45:15 10° W 02:59:23 54° SSW 03:18:18 10° SE visible
30 Jan - 05:00:41 10° W 05:14:31 28° SW 05:29:29 10° S visible
30 Jan - 21:09:16 10° SW 21:15:49 42° SSE 21:27:00 10° E visible
30 Jan - 23:19:19 10° WSW 23:28:33 68° S 23:44:50 10° E night (unlit)
